Weather History for Bullhead City, AZ

Change the Weather History Date:

Monday, November 5, 2012

  Actual Average Record
Temperature  
Mean Temperature 78 °F -  
Max Temperature 86 °F 74 °F 90 °F (1988)
Min Temperature 71 °F 55 °F 41 °F (1990)
Cooling Degree Days 14    
Growing Degree Days 28 (Base 50)    
Moisture  
Dew Point 31 °F    
Average Humidity 18    
Maximum Humidity 23    
Minimum Humidity 14    
Precipitation  
Precipitation 0.00 in - - ()
Sea Level Pressure  
Sea Level Pressure 30.08 in    
Wind  
Wind Speed 18 mph (North)    
Max Wind Speed 31 mph    
Max Gust Speed 37 mph    
Visibility 10 miles    
Events Rain    
Averages and records for this station are not official NWS values.
T = Trace of Precipitation, MM = Missing Value Source: NWS Daily Summary

Daily Weather History Graph

Daily Weather History Graph

Search for Another Location

Airport:

Trip Planner

Search our weather history database for the weather conditions in past years. The results will help you decide how hot, cold, wet, or windy it might be!

Date:

Astronomy

Nov. 05, 2012 Rise Set
Actual Time 7:03 AM MST 5:39 PM MST
Civil Twilight 6:37 AM MST 6:05 PM MST
Nautical Twilight 6:07 AM MST 6:36 PM MST
Astronomical Twilight 5:37 AM MST 7:05 PM MST
Moon 11:20 PM MST (11/5) 12:25 PM MST (11/5)
Length of Visible Light 11h 28m
Length of Day
10h 35m
Waning Gibbous, 62% of the Moon is Illuminated
Nov 5
Waning Gibbous
Nov 6
Last Quarter
Nov 13
New
Nov 20
First Quarter
Nov 28
Full

Hourly Weather History & Observations

Time (MST) Temp. Dew Point Humidity Pressure Visibility Wind Dir Wind Speed Gust Speed Precip Events Conditions
12:15 AM 71.6 °F 32.0 °F 23% 30.11 in 10.0 mi North 9.2 mph - N/A   Clear
12:35 AM 73.4 °F 32.0 °F 22% 30.11 in 10.0 mi North 9.2 mph - N/A   Clear
12:55 AM 73.4 °F 32.0 °F 22% 30.11 in 10.0 mi North 12.7 mph - N/A   Clear
1:15 AM 73.4 °F 32.0 °F 22% 30.11 in 10.0 mi North 12.7 mph - N/A   Clear
1:35 AM 75.2 °F 26.6 °F 17% 30.12 in 10.0 mi North 13.8 mph - N/A   Clear
1:55 AM 75.2 °F 26.6 °F 17% 30.12 in 10.0 mi North 17.3 mph - N/A   Clear
2:15 AM 75.2 °F 28.4 °F 18% 30.12 in 10.0 mi NNE 17.3 mph 24.2 mph N/A   Clear
2:35 AM 73.4 °F 28.4 °F 19% 30.12 in 10.0 mi North 17.3 mph - N/A   Clear
2:55 AM 75.2 °F 28.4 °F 18% 30.11 in 10.0 mi North 19.6 mph 23.0 mph N/A   Clear
3:15 AM 75.2 °F 28.4 °F 18% 30.11 in 10.0 mi North 20.7 mph 27.6 mph N/A   Clear
3:35 AM 75.2 °F 30.2 °F 19% 30.10 in 10.0 mi NNE 21.9 mph 26.5 mph N/A   Clear
3:55 AM 73.4 °F 30.2 °F 20% 30.09 in 10.0 mi North 25.3 mph 29.9 mph N/A   Clear
4:35 AM 73.4 °F 32.0 °F 22% 30.10 in 10.0 mi NNE 23.0 mph 28.8 mph N/A   Clear
4:55 AM 73.4 °F 32.0 °F 22% 30.10 in 10.0 mi NNE 23.0 mph 29.9 mph N/A Rain Light Rain
5:15 AM 73.4 °F 32.0 °F 22% 30.10 in 10.0 mi North 23.0 mph 29.9 mph N/A Rain Light Rain
5:35 AM 73.4 °F 32.0 °F 22% 30.10 in 10.0 mi North 24.2 mph 29.9 mph N/A   Clear
5:55 AM 73.4 °F 32.0 °F 22% 30.11 in 10.0 mi North 25.3 mph - N/A   Clear
6:15 AM 73.4 °F 32.0 °F 22% 30.11 in 10.0 mi North 23.0 mph - N/A   Clear
6:35 AM 73.4 °F 32.0 °F 22% 30.11 in 10.0 mi NNE 25.3 mph - N/A Rain Light Rain
6:55 AM 73.4 °F 32.0 °F 22% 30.12 in 10.0 mi NNE 23.0 mph 28.8 mph N/A Rain Light Rain
7:15 AM 73.4 °F 32.0 °F 22% 30.12 in 10.0 mi North 23.0 mph 31.1 mph N/A Rain Light Rain
7:35 AM 73.4 °F 32.0 °F 22% 30.13 in 10.0 mi NNE 24.2 mph 31.1 mph N/A Rain Light Rain
7:55 AM 73.4 °F 32.0 °F 22% 30.13 in 10.0 mi NNE 25.3 mph 31.1 mph N/A Rain Light Rain
8:15 AM 73.4 °F 32.0 °F 22% 30.13 in 10.0 mi NNE 29.9 mph 35.7 mph N/A Rain Light Rain
8:35 AM 73.4 °F 32.0 °F 22% 30.15 in 10.0 mi North 28.8 mph 33.4 mph N/A   Clear
8:55 AM 75.2 °F 32.0 °F 21% 30.15 in 10.0 mi NNE 27.6 mph 32.2 mph N/A   Clear
9:15 AM 75.2 °F 32.0 °F 21% 30.15 in 10.0 mi North 26.5 mph 33.4 mph N/A   Clear
9:35 AM 75.2 °F 32.0 °F 21% 30.16 in 10.0 mi North 24.2 mph 32.2 mph N/A   Clear
9:55 AM 77.0 °F 32.0 °F 19% 30.15 in 10.0 mi North 25.3 mph 34.5 mph N/A   Clear
10:15 AM 77.0 °F 32.0 °F 19% 30.15 in 4.0 mi North 26.5 mph 32.2 mph N/A   Haze
10:35 AM 80.6 °F 32.0 °F 17% 30.14 in 10.0 mi North 31.1 mph 34.5 mph N/A   Clear
10:55 AM 80.6 °F 32.0 °F 17% 30.14 in 10.0 mi North 25.3 mph 36.8 mph N/A Rain Heavy Rain
11:15 AM 80.6 °F 32.0 °F 17% 30.14 in 10.0 mi North 28.8 mph 33.4 mph N/A   Clear
11:35 AM 80.6 °F 32.0 °F 17% 30.14 in 10.0 mi North 25.3 mph 32.2 mph N/A   Clear
11:55 AM 82.4 °F 32.0 °F 16% 30.13 in 10.0 mi North 25.3 mph 32.2 mph N/A Rain Light Rain
12:15 PM 82.4 °F 32.0 °F 16% 30.12 in 10.0 mi North 23.0 mph 29.9 mph N/A   Clear
12:35 PM 82.4 °F 30.2 °F 15% 30.10 in 10.0 mi North 23.0 mph 31.1 mph N/A   Clear
12:55 PM 84.2 °F 30.2 °F 14% 30.09 in 10.0 mi North 23.0 mph 27.6 mph N/A   Clear
1:15 PM 84.2 °F 30.2 °F 14% 30.08 in 10.0 mi North 23.0 mph 27.6 mph N/A   Clear
1:35 PM 84.2 °F 32.0 °F 15% 30.07 in 10.0 mi North 25.3 mph - N/A   Clear
1:55 PM 86.0 °F 32.0 °F 14% 30.06 in 10.0 mi North 21.9 mph 26.5 mph N/A   Clear
2:15 PM 86.0 °F 32.0 °F 14% 30.05 in 10.0 mi North 21.9 mph - N/A   Clear
2:35 PM 86.0 °F 32.0 °F 14% 30.05 in 10.0 mi North 21.9 mph 29.9 mph N/A   Clear
2:55 PM 86.0 °F 32.0 °F 14% 30.04 in 10.0 mi North 23.0 mph - N/A Rain Light Rain
3:15 PM 86.0 °F 32.0 °F 14% 30.04 in 10.0 mi NNW 21.9 mph 28.8 mph N/A Rain Light Rain
3:35 PM 86.0 °F 32.0 °F 14% 30.03 in 10.0 mi North 23.0 mph 26.5 mph N/A   Clear
3:55 PM 86.0 °F 32.0 °F 14% 30.03 in 10.0 mi North 23.0 mph 26.5 mph N/A   Clear
4:15 PM 86.0 °F 32.0 °F 14% 30.03 in 10.0 mi North 20.7 mph - N/A   Clear
4:35 PM 86.0 °F 32.0 °F 14% 30.02 in 10.0 mi North 20.7 mph - N/A   Clear
4:55 PM 84.2 °F 32.0 °F 15% 30.02 in 10.0 mi North 19.6 mph 24.2 mph N/A   Clear
5:15 PM 84.2 °F 32.0 °F 15% 30.02 in 10.0 mi North 20.7 mph 26.5 mph N/A   Clear
5:35 PM 84.2 °F 32.0 °F 15% 30.02 in 10.0 mi NNW 15.0 mph - N/A   Clear
5:55 PM 82.4 °F 32.0 °F 16% 30.02 in 10.0 mi North 13.8 mph - N/A   Clear
6:15 PM 82.4 °F 32.0 °F 16% 30.03 in 10.0 mi North 16.1 mph 20.7 mph N/A   Clear
6:35 PM 82.4 °F 32.0 °F 16% 30.03 in 10.0 mi North 15.0 mph - N/A   Clear
6:55 PM 82.4 °F 32.0 °F 16% 30.03 in 10.0 mi North 15.0 mph - N/A   Clear
7:15 PM 82.4 °F 32.0 °F 16% 30.03 in 10.0 mi North 15.0 mph - N/A   Clear
7:35 PM 80.6 °F 32.0 °F 17% 30.04 in 10.0 mi North 13.8 mph - N/A   Clear
7:55 PM 80.6 °F 30.2 °F 16% 30.04 in 10.0 mi NNE 13.8 mph 19.6 mph N/A   Clear
8:15 PM 80.6 °F 32.0 °F 17% 30.03 in 10.0 mi North 15.0 mph - N/A   Clear
8:35 PM 80.6 °F 32.0 °F 17% 30.03 in 10.0 mi NNE 17.3 mph - N/A   Clear
8:55 PM 80.6 °F 32.0 °F 17% 30.03 in 10.0 mi NNE 17.3 mph - N/A   Clear
9:15 PM 80.6 °F 32.0 °F 17% 30.04 in 10.0 mi NNE 17.3 mph 21.9 mph N/A   Clear
9:35 PM 80.6 °F 32.0 °F 17% 30.05 in 10.0 mi North 8.1 mph - N/A   Clear
9:55 PM 78.8 °F 32.0 °F 18% 30.05 in 10.0 mi North 10.4 mph - N/A   Clear
10:15 PM 80.6 °F 32.0 °F 17% 30.05 in 10.0 mi North 13.8 mph - N/A   Clear
10:35 PM 78.8 °F 32.0 °F 18% 30.05 in 10.0 mi North 9.2 mph - N/A   Clear
10:55 PM 78.8 °F 32.0 °F 18% 30.04 in 10.0 mi NNE 13.8 mph - N/A   Clear
11:15 PM 77.0 °F 32.0 °F 19% 30.04 in 10.0 mi North 10.4 mph 16.1 mph N/A   Clear
11:35 PM 80.6 °F 32.0 °F 17% 30.04 in 10.0 mi NNE 15.0 mph - N/A   Clear
11:55 PM 80.6 °F 32.0 °F 17% 30.04 in 10.0 mi NNE 13.8 mph - N/A   Clear